Flag for Bahrain

Past Weather in Manama, Bahrain — Yesterday and Last 2 Weeks

Now
97 °F

Clear.


Feels Like: 118 °F
Forecast: 108 / 95 °F
Wind: 10 mph from Northwest

Location: Bahrain International Airport

Current Time: Jul 15, 2020 at 2:04:18 am

Latest Report: Jul 15, 2020 at 1:00 am


Visibility: 10 mi

Pressure: 29.45 "Hg

Humidity: 60%

Dew Point: 81 °F

Location of ManamaLocation

Past Weather in Manama — Graph

°F

Manama Temperature Yesterday

Maximum temperature yesterday: 109 °F (at 11:30 am)
Minimum temperature yesterday: 91 °F (at 3:30 am)
Average temperature yesterday: 99 °F

High & Low Weather Summary for the Past Weeks

 TemperatureHumidityPressure
High113 °F (Jul 5, 12:30 pm)89% (Jul 2, 11:30 pm)29.53 "Hg (Jul 2, 11:30 pm)
Low88 °F (Jul 2, 4:00 am)8% (Jul 5, 12:00 pm)29.27 "Hg (Jul 5, 5:30 pm)
Average98 °F48%29.41 "Hg
* Reported Jun 30 1:00 am — Jul 15 1:00 am, Manama. Weather by CustomWeather, © 2020

Note: Actual official high and low records may vary slightly from our data, if they occured in-between our weather recording intervals... More about our weather records

Manama Weather History for the Previous 24 Hours

Scroll right to see more
 ConditionsComfort  
Time TempWeatherWind HumidityBarometerVisibility
1:00 am
Wed, Jul 15
97 °FClear.10 mph60%29.45 "Hg10 mi
12:30 am97 °FClear.10 mph53%29.45 "Hg10 mi
12:00 am97 °FClear.12 mph53%29.45 "Hg10 mi
11:30 pm
Tue, Jul 14
97 °FClear.12 mph53%29.45 "Hg10 mi
10:30 pm97 °FClear.14 mph53%29.47 "Hg10 mi
10:00 pm97 °FClear.15 mph56%29.47 "Hg10 mi
9:30 pm97 °FClear.14 mph60%29.47 "Hg10 mi
9:00 pm97 °FClear.14 mph60%29.47 "Hg10 mi
8:30 pm97 °FClear.10 mph56%29.47 "Hg10 mi
8:00 pm99 °FClear.12 mph44%29.47 "Hg10 mi
7:30 pm99 °FClear.10 mph47%29.47 "Hg10 mi
7:00 pm99 °FClear.13 mph44%29.45 "Hg10 mi
6:30 pm99 °FSunny.12 mph42%29.45 "Hg10 mi
6:00 pm100 °FSunny.10 mph42%29.45 "Hg10 mi
5:30 pm100 °FSunny.13 mph37%29.45 "Hg10 mi
5:00 pm102 °FSunny.15 mph29%29.45 "Hg10 mi
4:30 pm104 °FSunny.12 mph28%29.45 "Hg10 mi
4:00 pm104 °FSunny.15 mph28%29.45 "Hg10 mi
3:30 pm104 °FSunny.13 mph35%29.45 "Hg10 mi
3:00 pm104 °FSunny.9 mph38%29.45 "Hg10 mi
2:30 pm102 °FSunny.13 mph51%29.47 "Hg10 mi
2:00 pm102 °FSunny.12 mph48%29.45 "Hg10 mi
1:30 pm104 °FPassing clouds.8 mph45%29.45 "HgN/A
1:00 pm106 °FPassing clouds.8 mph40%29.47 "HgN/A
12:30 pm108 °FPassing clouds.6 mph34%29.47 "HgN/A
12:00 pm109 °FPassing clouds.6 mph32%29.47 "HgN/A
11:30 am109 °FPassing clouds.3 mph27%29.47 "HgN/A
11:00 am108 °FSunny.3 mph30%29.47 "Hg10 mi
10:30 am106 °FPassing clouds.6 mph30%29.47 "HgN/A
10:00 am102 °FSunny.12 mph40%29.47 "Hg10 mi
9:30 am104 °FPassing clouds.6 mph38%29.47 "HgN/A
9:00 am102 °FPassing clouds.5 mph37%29.47 "HgN/A
8:30 am100 °FPassing clouds.3 mph47%29.47 "HgN/A
8:00 am100 °FPassing clouds.6 mph42%29.47 "HgN/A
7:30 am99 °FPassing clouds.3 mph50%29.47 "HgN/A
7:00 am97 °FPassing clouds.6 mph56%29.47 "HgN/A
6:30 am97 °FPassing clouds.6 mph50%29.45 "HgN/A
6:00 am97 °FSunny.7 mph44%29.45 "Hg10 mi
5:30 am93 °FSunny.3 mph56%29.42 "Hg10 mi
5:00 am93 °FSunny.2 mph59%29.42 "Hg10 mi
4:30 am93 °FClear.3 mph59%29.42 "Hg10 mi
4:00 am93 °FClear.5 mph59%29.39 "Hg10 mi
3:30 am91 °FClear.7 mph71%29.39 "Hg10 mi
3:00 am93 °FPassing clouds.3 mph63%29.39 "HgN/A
2:30 am93 °FClear.5 mph71%29.39 "Hg10 mi
2:00 am93 °FClear.5 mph67%29.39 "Hg10 mi
Weather by CustomWeather, © 2020

See weather overview